Weather History for KPIH - March, 2013

Change the Weather History Date:

Sunday, March 17, 2013

  Actual Average Record
Temperature  
Mean Temperature 37 °F 38 °F  
Max Temperature 45 °F 49 °F 72 °F (2007)
Min Temperature 28 °F 28 °F 10 °F (1971)
Degree Days  
Heating Degree Days 28 26  
Month to date heating degree days 420 495  
Since 1 July heating degree days 5531 5768  
Cooling Degree Days 0 0  
Month to date cooling degree days 0 0  
Year to date cooling degree days 0 0  
Moisture  
Dew Point 19 °F    
Average Humidity 51    
Maximum Humidity 82    
Minimum Humidity 19    
Precipitation  
Precipitation 0.01 in 0.04 in 0.77 in (1993)
Month to date precipitation 0.35 0.70  
Year to date precipitation 1.43 2.66  
Snow  
Snow 0.00 in - - ()
Month to date snowfall 0.6  
Since 1 July snowfall 34.2  
Snow Depth 0.00 in    
Sea Level Pressure  
Sea Level Pressure 29.87 in    
Wind  
Wind Speed 25 mph (WSW)    
Max Wind Speed 46 mph    
Max Gust Speed 56 mph    
Visibility 10 miles    
Events Rain    
T = Trace of Precipitation, MM = Missing Value Source: NWS Daily Summary

Daily Weather History Graph

Daily Weather History Graph

Search for Another Location

Airport or City:

Trip Planner

Search our weather history database for the weather conditions in past years. The results will help you decide how hot, cold, wet, or windy it might be!

Date:

Astronomy

Mar. 17, 2013 Rise Set
Actual Time 7:38 AM MDT 7:39 PM MDT
Civil Twilight 7:10 AM MDT 8:07 PM MDT
Nautical Twilight 6:37 AM MDT 8:40 PM MDT
Astronomical Twilight 6:03 AM MDT 9:14 PM MDT
Moon 10:45 AM MDT (3/17) 12:58 AM MDT (3/17)
Length of Visible Light 12h 57m
Length of Day
12h 01m
Waxing Crescent, 32% of the Moon is Illuminated
Mar 17
Waxing Crescent
Mar 19
First Quarter
Mar 27
Full
Apr 2
Last Quarter
Apr 10
New

Hourly Weather History & Observations

Time (MDT) Temp. Windchill Dew Point Humidity Pressure Visibility Wind Dir Wind Speed Gust Speed Precip Events Conditions
12:17 AM 42.8 °F 37.5 °F 37.4 °F 81% 29.80 in 10.0 mi SW 9.2 mph - 0.00 in Rain Light Rain
12:53 AM 42.1 °F 33.3 °F 36.0 °F 79% 29.78 in 10.0 mi WSW 19.6 mph 29.9 mph 0.01 in Rain Light Rain
1:08 AM 39.2 °F 28.0 °F 35.6 °F 87% 29.81 in 8.0 mi West 26.5 mph 33.4 mph 0.00 in Rain Light Rain
1:31 AM 39.2 °F 29.6 °F 35.6 °F 87% 29.79 in 10.0 mi SW 19.6 mph 26.5 mph 0.01 in Rain Light Rain
1:53 AM 39.0 °F 29.6 °F 36.0 °F 89% 29.75 in 10.0 mi SW 18.4 mph - 0.01 in   Overcast
2:53 AM 39.9 °F 28.8 °F 33.1 °F 77% 29.73 in 10.0 mi SW 27.6 mph 38.0 mph N/A   Partly Cloudy
3:53 AM 37.9 °F 26.1 °F 32.0 °F 79% 29.74 in 10.0 mi WSW 27.6 mph 34.5 mph N/A   Clear
4:53 AM 36.0 °F 22.8 °F 25.0 °F 64% 29.75 in 10.0 mi WSW 31.1 mph 42.6 mph N/A   Clear
5:53 AM 34.0 °F 20.5 °F 25.0 °F 70% 29.74 in 10.0 mi SW 28.8 mph 36.8 mph N/A   Clear
6:53 AM 34.0 °F 20.8 °F 24.1 °F 67% 29.76 in 10.0 mi SW 27.6 mph 36.8 mph N/A   Partly Cloudy
7:53 AM 33.1 °F 20.3 °F 21.9 °F 64% 29.80 in 10.0 mi SW 24.2 mph 31.1 mph N/A   Scattered Clouds
8:53 AM 34.0 °F 20.5 °F 21.9 °F 61% 29.83 in 10.0 mi WSW 28.8 mph 36.8 mph N/A   Scattered Clouds
9:53 AM 35.1 °F 19.9 °F 19.9 °F 54% 29.82 in 10.0 mi WSW 41.4 mph 56.4 mph N/A   Scattered Clouds
10:53 AM 37.0 °F 23.0 °F 17.1 °F 44% 29.85 in 10.0 mi West 39.1 mph 50.6 mph N/A   Scattered Clouds
11:53 AM 39.9 °F 28.0 °F 14.0 °F 35% 29.91 in 10.0 mi West 32.2 mph 42.6 mph N/A   Scattered Clouds
12:53 PM 39.9 °F 29.0 °F 6.1 °F 25% 29.92 in 10.0 mi West 26.5 mph 34.5 mph N/A   Scattered Clouds
1:53 PM 43.0 °F 33.3 °F 8.1 °F 24% 29.93 in 10.0 mi West 25.3 mph 33.4 mph N/A   Mostly Cloudy
2:53 PM 44.1 °F 34.6 °F 9.0 °F 24% 29.92 in 10.0 mi West 26.5 mph 36.8 mph N/A   Mostly Cloudy
3:53 PM 43.0 °F 32.9 °F 8.1 °F 24% 29.92 in 10.0 mi West 27.6 mph 38.0 mph N/A   Scattered Clouds
4:53 PM 42.1 °F 32.8 °F 3.9 °F 21% 29.93 in 10.0 mi West 21.9 mph 31.1 mph N/A   Scattered Clouds
5:53 PM 41.0 °F 31.4 °F 6.1 °F 24% 29.94 in 10.0 mi West 21.9 mph 29.9 mph N/A   Scattered Clouds
6:53 PM 37.9 °F 26.1 °F 10.0 °F 32% 29.98 in 10.0 mi WSW 27.6 mph 33.4 mph N/A   Scattered Clouds
7:53 PM 35.1 °F 23.5 °F 10.0 °F 35% 29.99 in 10.0 mi WSW 21.9 mph - N/A   Clear
8:53 PM 33.1 °F 22.2 °F 10.9 °F 40% 30.01 in 10.0 mi WSW 17.3 mph - N/A   Clear
9:53 PM 30.9 °F 20.7 °F 12.0 °F 46% 30.02 in 10.0 mi SSW 13.8 mph - N/A   Clear
10:53 PM 30.0 °F 19.5 °F 10.0 °F 43% 30.03 in 10.0 mi SSW 13.8 mph - N/A   Clear
11:53 PM 30.0 °F 19.5 °F 10.0 °F 43% 30.03 in 10.0 mi WSW 13.8 mph - N/A   Clear